Volver al catálogo

STARLINK-5601

ActivoComunicacionesVLEO
NORAD 55744·PAYLOAD·🇺🇸 United States

Lanzado Mar 3, 2023 desde Vandenberg Space Force Base

Loading…

Próximos Pases (próximas 24 horas)

TLE

ActualizadoSource: CelesTrak SupGP

Época: Sep 15, 2026, 02:59 UTC

1 55744C 23028D   26258.12479167  .00757440  00000+0  61642-1 0  2584
2 55744  69.9997 126.9665 0003068 275.5887  32.6173 14.99080254    15

Sigue STARLINK-5601 en tiempo real con AllMySat

Download on the App Store